Year,Month,Day,Hour,Minute,Value (Times are PST for temperature in C)
2009,09,14,00,00,15.40
2009,09,14,00,01,15.40
2009,09,14,00,02,15.40
2009,09,14,00,03,15.40
2009,09,14,00,04,15.50
2009,09,14,00,05,15.50
2009,09,14,00,06,15.50
2009,09,14,00,07,15.50
2009,09,14,00,08,15.50
2009,09,14,00,09,15.50
2009,09,14,00,10,15.50
2009,09,14,00,11,15.60
2009,09,14,00,12,15.60
2009,09,14,00,13,15.60
2009,09,14,00,14,15.60
2009,09,14,00,15,15.60
2009,09,14,00,16,15.60
2009,09,14,00,17,15.60
2009,09,14,00,18,15.60
2009,09,14,00,19,15.50
2009,09,14,00,20,15.50
2009,09,14,00,21,15.50
2009,09,14,00,22,15.40
2009,09,14,00,23,15.30
2009,09,14,00,24,15.20
2009,09,14,00,25,15.20
2009,09,14,00,26,15.10
2009,09,14,00,27,15.10
2009,09,14,00,28,15.10
2009,09,14,00,29,15.00
2009,09,14,00,30,15.00
2009,09,14,00,31,15.00
2009,09,14,00,32,14.90
2009,09,14,00,33,14.90
2009,09,14,00,34,14.80
2009,09,14,00,35,14.80
2009,09,14,00,36,14.80
2009,09,14,00,37,14.70
2009,09,14,00,38,14.70
2009,09,14,00,39,14.70
2009,09,14,00,40,14.60
2009,09,14,00,41,14.60
2009,09,14,00,42,14.60
2009,09,14,00,43,14.60
2009,09,14,00,44,14.60
2009,09,14,00,45,14.60
2009,09,14,00,46,14.70
2009,09,14,00,47,14.70
2009,09,14,00,48,14.70
2009,09,14,00,49,14.70
2009,09,14,00,50,14.70
2009,09,14,00,51,14.80
2009,09,14,00,52,14.80
2009,09,14,00,53,14.80
2009,09,14,00,54,14.80
2009,09,14,00,55,14.80
2009,09,14,00,56,14.80
2009,09,14,00,57,14.80
2009,09,14,00,58,14.80
2009,09,14,00,59,14.90
2009,09,14,01,00,14.90
2009,09,14,01,01,14.90
2009,09,14,01,02,14.90
2009,09,14,01,03,14.90
2009,09,14,01,04,14.90
2009,09,14,01,05,14.90
2009,09,14,01,06,14.90
2009,09,14,01,07,14.90
2009,09,14,01,08,15.00
2009,09,14,01,09,15.00
2009,09,14,01,10,15.00
2009,09,14,01,11,15.00
2009,09,14,01,12,15.00
2009,09,14,01,13,15.00
2009,09,14,01,14,15.10
2009,09,14,01,15,15.10
2009,09,14,01,16,15.10
2009,09,14,01,17,15.10
2009,09,14,01,18,15.10
2009,09,14,01,19,15.10
2009,09,14,01,20,15.00
2009,09,14,01,21,15.00
2009,09,14,01,22,15.00
2009,09,14,01,23,15.00
2009,09,14,01,24,14.90
2009,09,14,01,25,14.90
2009,09,14,01,26,14.90
2009,09,14,01,27,14.80
2009,09,14,01,28,14.80
2009,09,14,01,29,14.80
2009,09,14,01,30,14.80
2009,09,14,01,31,14.80
2009,09,14,01,32,14.80
2009,09,14,01,33,14.80
2009,09,14,01,34,14.80
2009,09,14,01,35,14.80
2009,09,14,01,36,14.80
2009,09,14,01,37,14.70
2009,09,14,01,38,14.70
2009,09,14,01,39,14.70
2009,09,14,01,40,14.60
2009,09,14,01,41,14.60
2009,09,14,01,42,14.40
2009,09,14,01,43,14.30
2009,09,14,01,44,14.20
2009,09,14,01,45,14.20
2009,09,14,01,46,14.10
2009,09,14,01,47,14.00
2009,09,14,01,48,14.00
2009,09,14,01,49,14.00
2009,09,14,01,50,13.90
2009,09,14,01,51,13.90
2009,09,14,01,52,13.90
2009,09,14,01,53,13.90
2009,09,14,01,54,13.80
2009,09,14,01,55,13.80
2009,09,14,01,56,13.90
2009,09,14,01,57,13.90
2009,09,14,01,58,13.90
2009,09,14,01,59,13.90
2009,09,14,02,00,13.90
2009,09,14,02,01,13.90
2009,09,14,02,02,13.90
2009,09,14,02,03,13.90
2009,09,14,02,04,13.90
2009,09,14,02,05,13.90
2009,09,14,02,06,13.90
2009,09,14,02,07,13.80
2009,09,14,02,08,13.80
2009,09,14,02,09,13.80
2009,09,14,02,10,13.80
2009,09,14,02,11,13.70
2009,09,14,02,12,13.70
2009,09,14,02,13,13.70
2009,09,14,02,14,13.60
2009,09,14,02,15,13.60
2009,09,14,02,16,13.60
2009,09,14,02,17,13.60
2009,09,14,02,18,13.60
2009,09,14,02,19,13.60
2009,09,14,02,20,13.60
2009,09,14,02,21,13.60
2009,09,14,02,22,13.60
2009,09,14,02,23,13.50
2009,09,14,02,24,13.40
2009,09,14,02,25,13.30
2009,09,14,02,26,13.30
2009,09,14,02,27,13.20
2009,09,14,02,28,13.20
2009,09,14,02,29,13.20
2009,09,14,02,30,13.20
2009,09,14,02,31,13.10
2009,09,14,02,32,13.10
2009,09,14,02,33,13.10
2009,09,14,02,34,13.10
2009,09,14,02,35,13.10
2009,09,14,02,36,13.10
2009,09,14,02,37,13.10
2009,09,14,02,38,13.10
2009,09,14,02,39,13.10
2009,09,14,02,40,13.00
2009,09,14,02,41,13.00
2009,09,14,02,42,13.00
2009,09,14,02,43,13.00
2009,09,14,02,44,13.00
2009,09,14,02,45,13.00
2009,09,14,02,46,13.00
2009,09,14,02,47,13.00
2009,09,14,02,48,12.90
2009,09,14,02,49,13.00
2009,09,14,02,50,13.00
2009,09,14,02,51,13.00
2009,09,14,02,52,13.00
2009,09,14,02,53,13.00
2009,09,14,02,54,13.00
2009,09,14,02,55,13.00
2009,09,14,02,56,13.00
2009,09,14,02,57,13.00
2009,09,14,02,58,12.90
2009,09,14,02,59,12.90
2009,09,14,03,00,12.90
2009,09,14,03,01,12.90
2009,09,14,03,02,12.90
2009,09,14,03,03,12.90
2009,09,14,03,04,12.90
2009,09,14,03,05,12.90
2009,09,14,03,06,12.90
2009,09,14,03,07,12.90
2009,09,14,03,08,12.90
2009,09,14,03,09,12.90
2009,09,14,03,10,12.90
2009,09,14,03,11,12.90
2009,09,14,03,12,12.90
2009,09,14,03,13,12.90
2009,09,14,03,14,12.90
2009,09,14,03,15,13.00
2009,09,14,03,16,13.00
2009,09,14,03,17,13.10
2009,09,14,03,18,13.10
2009,09,14,03,19,13.10
2009,09,14,03,20,13.10
2009,09,14,03,21,13.10
2009,09,14,03,22,13.10
2009,09,14,03,23,13.10
2009,09,14,03,24,13.10
2009,09,14,03,25,13.10
2009,09,14,03,26,13.10
2009,09,14,03,27,13.10
2009,09,14,03,28,13.10
2009,09,14,03,29,13.10
2009,09,14,03,30,13.10
2009,09,14,03,31,13.10
2009,09,14,03,32,13.20
2009,09,14,03,33,13.20
2009,09,14,03,34,13.20
2009,09,14,03,35,13.20
2009,09,14,03,36,13.20
2009,09,14,03,37,13.20
2009,09,14,03,38,13.30
2009,09,14,03,39,13.30
2009,09,14,03,40,13.30
2009,09,14,03,41,13.30
2009,09,14,03,42,13.30
2009,09,14,03,43,13.30
2009,09,14,03,44,13.30
2009,09,14,03,45,13.30
2009,09,14,03,46,13.30
2009,09,14,03,47,13.30
2009,09,14,03,48,13.30
2009,09,14,03,49,13.30
2009,09,14,03,50,13.30
2009,09,14,03,51,13.30
2009,09,14,03,52,13.30
2009,09,14,03,53,13.30
2009,09,14,03,54,13.30
2009,09,14,03,55,13.30
2009,09,14,03,56,13.40
2009,09,14,03,57,13.40
2009,09,14,03,58,13.40
2009,09,14,03,59,13.40
2009,09,14,04,00,13.40
2009,09,14,04,01,13.40
2009,09,14,04,02,13.40
2009,09,14,04,03,13.40
2009,09,14,04,04,13.40
2009,09,14,04,05,13.40
2009,09,14,04,06,13.40
2009,09,14,04,07,13.40
2009,09,14,04,08,13.30
2009,09,14,04,09,13.30
2009,09,14,04,10,13.30
2009,09,14,04,11,13.30
2009,09,14,04,12,13.30
2009,09,14,04,13,13.30
2009,09,14,04,14,13.30
2009,09,14,04,15,13.30
2009,09,14,04,16,13.30
2009,09,14,04,17,13.30
2009,09,14,04,18,13.30
2009,09,14,04,19,13.30
2009,09,14,04,20,13.30
2009,09,14,04,21,13.30
2009,09,14,04,22,13.30
2009,09,14,04,23,13.30
2009,09,14,04,24,13.30
2009,09,14,04,25,13.30
2009,09,14,04,26,13.30
2009,09,14,04,27,13.30
2009,09,14,04,28,13.30
2009,09,14,04,29,13.30
2009,09,14,04,30,13.30
2009,09,14,04,31,13.30
2009,09,14,04,32,13.30
2009,09,14,04,33,13.30
2009,09,14,04,34,13.30
2009,09,14,04,35,13.30
2009,09,14,04,36,13.30
2009,09,14,04,37,13.30
2009,09,14,04,38,13.30
2009,09,14,04,39,13.30
2009,09,14,04,40,13.30
2009,09,14,04,41,13.30
2009,09,14,04,42,13.30
2009,09,14,04,43,13.30
2009,09,14,04,44,13.30
2009,09,14,04,45,13.30
2009,09,14,04,46,13.30
2009,09,14,04,47,13.30
2009,09,14,04,48,13.30
2009,09,14,04,49,13.30
2009,09,14,04,50,13.30
2009,09,14,04,51,13.30
2009,09,14,04,52,13.20
2009,09,14,04,53,13.20
2009,09,14,04,54,13.20
2009,09,14,04,55,13.20
2009,09,14,04,56,13.20
2009,09,14,04,57,13.20
2009,09,14,04,58,13.20
2009,09,14,04,59,13.20
2009,09,14,05,00,13.20
2009,09,14,05,01,13.20
2009,09,14,05,02,13.20
2009,09,14,05,03,13.20
2009,09,14,05,04,13.20
2009,09,14,05,05,13.20
2009,09,14,05,06,13.20
2009,09,14,05,07,13.20
2009,09,14,05,08,13.20
2009,09,14,05,09,13.30
2009,09,14,05,10,13.30
2009,09,14,05,11,13.30
2009,09,14,05,12,13.30
2009,09,14,05,13,13.30
2009,09,14,05,14,13.30
2009,09,14,05,15,13.30
2009,09,14,05,16,13.20
2009,09,14,05,17,13.20
2009,09,14,05,18,13.20
2009,09,14,05,19,13.20
2009,09,14,05,20,13.20
2009,09,14,05,21,13.20
2009,09,14,05,22,13.20
2009,09,14,05,23,13.20
2009,09,14,05,24,13.20
2009,09,14,05,25,13.20
2009,09,14,05,26,13.30
2009,09,14,05,27,13.30
2009,09,14,05,28,13.30
2009,09,14,05,29,13.30
2009,09,14,05,30,13.30
2009,09,14,05,31,13.30
2009,09,14,05,32,13.30
2009,09,14,05,33,13.30
2009,09,14,05,34,13.30
2009,09,14,05,35,13.30
2009,09,14,05,36,13.30
2009,09,14,05,37,13.30
2009,09,14,05,38,13.30
2009,09,14,05,39,13.30
2009,09,14,05,40,13.30
2009,09,14,05,41,13.30
2009,09,14,05,42,13.30
2009,09,14,05,43,13.30
2009,09,14,05,44,13.30
2009,09,14,05,45,13.30
2009,09,14,05,46,13.30
2009,09,14,05,47,13.30
2009,09,14,05,48,13.30
2009,09,14,05,49,13.30
2009,09,14,05,50,13.30
2009,09,14,05,51,13.30
2009,09,14,05,52,13.30
2009,09,14,05,53,13.30
2009,09,14,05,54,13.40
2009,09,14,05,55,13.40
2009,09,14,05,56,13.40
2009,09,14,05,57,13.40
2009,09,14,05,58,13.40
2009,09,14,05,59,13.40
2009,09,14,06,00,13.40
2009,09,14,06,01,13.50
2009,09,14,06,02,13.50
2009,09,14,06,03,13.50
2009,09,14,06,04,13.50
2009,09,14,06,05,13.50
2009,09,14,06,06,13.50
2009,09,14,06,07,13.50
2009,09,14,06,08,13.50
2009,09,14,06,09,13.50
2009,09,14,06,10,13.50
2009,09,14,06,11,13.50
2009,09,14,06,12,13.50
2009,09,14,06,13,13.50
2009,09,14,06,14,13.50
2009,09,14,06,15,13.50
2009,09,14,06,16,13.50
2009,09,14,06,17,13.50
2009,09,14,06,18,13.50
2009,09,14,06,19,13.50
2009,09,14,06,20,13.50
2009,09,14,06,21,13.50
2009,09,14,06,22,13.50
2009,09,14,06,23,13.50
2009,09,14,06,24,13.50
2009,09,14,06,25,13.50
2009,09,14,06,26,13.50
2009,09,14,06,27,13.50
2009,09,14,06,28,13.50
2009,09,14,06,29,13.50
2009,09,14,06,30,13.50
2009,09,14,06,31,13.50
2009,09,14,06,32,13.50
2009,09,14,06,33,13.40
2009,09,14,06,34,13.40
2009,09,14,06,35,13.40
2009,09,14,06,36,13.30
2009,09,14,06,37,13.30
2009,09,14,06,38,13.30
2009,09,14,06,39,13.30
2009,09,14,06,40,13.30
2009,09,14,06,41,13.30
2009,09,14,06,42,13.30
2009,09,14,06,43,13.30
2009,09,14,06,44,13.30
2009,09,14,06,45,13.30
2009,09,14,06,46,13.30
2009,09,14,06,47,13.30
2009,09,14,06,48,13.30
2009,09,14,06,49,13.30
2009,09,14,06,50,13.30
2009,09,14,06,51,13.30
2009,09,14,06,52,13.30
2009,09,14,06,53,13.30
2009,09,14,06,54,13.30
2009,09,14,06,55,13.30
2009,09,14,06,56,13.30
2009,09,14,06,57,13.30
2009,09,14,06,58,13.30
2009,09,14,06,59,13.30
2009,09,14,07,00,13.30
2009,09,14,07,01,13.30
2009,09,14,07,02,13.30
2009,09,14,07,03,13.30
2009,09,14,07,04,13.30
2009,09,14,07,05,13.40
2009,09,14,07,06,13.40
2009,09,14,07,07,13.40
2009,09,14,07,08,13.40
2009,09,14,07,09,13.50
2009,09,14,07,10,13.50
2009,09,14,07,11,13.50
2009,09,14,07,12,13.50
2009,09,14,07,13,13.50
2009,09,14,07,14,13.50
2009,09,14,07,15,13.60
2009,09,14,07,16,13.60
2009,09,14,07,17,13.60
2009,09,14,07,18,13.60
2009,09,14,07,19,13.60
2009,09,14,07,20,13.70
2009,09,14,07,21,13.70
2009,09,14,07,22,13.70
2009,09,14,07,23,13.70
2009,09,14,07,24,13.70
2009,09,14,07,25,13.70
2009,09,14,07,26,13.80
2009,09,14,07,27,13.80
2009,09,14,07,28,13.80
2009,09,14,07,29,13.90
2009,09,14,07,30,13.90
2009,09,14,07,31,13.90
2009,09,14,07,32,14.00
2009,09,14,07,33,14.00
2009,09,14,07,34,14.10
2009,09,14,07,35,14.10
2009,09,14,07,36,14.10
2009,09,14,07,37,14.20
2009,09,14,07,38,14.20
2009,09,14,07,39,14.20
2009,09,14,07,40,14.20
2009,09,14,07,41,14.30
2009,09,14,07,42,14.30
2009,09,14,07,43,14.40
2009,09,14,07,44,14.40
2009,09,14,07,45,14.40
2009,09,14,07,46,14.50
2009,09,14,07,47,14.50
2009,09,14,07,48,14.50
2009,09,14,07,49,14.60
2009,09,14,07,50,14.60
2009,09,14,07,51,14.60
2009,09,14,07,52,14.70
2009,09,14,07,53,14.70
2009,09,14,07,54,14.80
2009,09,14,07,55,14.80
2009,09,14,07,56,14.80
2009,09,14,07,57,14.80
2009,09,14,07,58,14.80
2009,09,14,07,59,14.80
2009,09,14,08,00,14.90
2009,09,14,08,01,14.90
2009,09,14,08,02,15.00
2009,09,14,08,03,15.00
2009,09,14,08,04,15.00
2009,09,14,08,05,15.10
2009,09,14,08,06,15.10
2009,09,14,08,07,15.10
2009,09,14,08,08,15.10
2009,09,14,08,09,15.20
2009,09,14,08,10,15.20
2009,09,14,08,11,15.20
2009,09,14,08,12,15.20
2009,09,14,08,13,15.30
2009,09,14,08,14,15.30
2009,09,14,08,15,15.30
2009,09,14,08,16,15.30
2009,09,14,08,17,15.30
2009,09,14,08,18,15.40
2009,09,14,08,19,15.40
2009,09,14,08,20,15.40
2009,09,14,08,21,15.40
2009,09,14,08,22,15.40
2009,09,14,08,23,15.40
2009,09,14,08,24,15.40
2009,09,14,08,25,15.30
2009,09,14,08,26,15.30
2009,09,14,08,27,15.30
2009,09,14,08,28,15.20
2009,09,14,08,29,15.10
2009,09,14,08,30,15.10
2009,09,14,08,31,15.10
2009,09,14,08,32,15.10
2009,09,14,08,33,15.10
2009,09,14,08,34,15.10
2009,09,14,08,35,15.00
2009,09,14,08,36,15.00
2009,09,14,08,37,15.00
2009,09,14,08,38,15.00
2009,09,14,08,39,15.00
2009,09,14,08,40,15.00
2009,09,14,08,41,15.00
2009,09,14,08,42,15.00
2009,09,14,08,43,15.00
2009,09,14,08,44,15.00
2009,09,14,08,45,15.00
2009,09,14,08,46,15.00
2009,09,14,08,47,15.00
2009,09,14,08,48,15.00
2009,09,14,08,49,14.90
2009,09,14,08,50,14.90
2009,09,14,08,51,14.80
2009,09,14,08,52,14.80
2009,09,14,08,53,14.80
2009,09,14,08,54,14.80
2009,09,14,08,55,14.80
2009,09,14,08,56,14.80
2009,09,14,08,57,14.90
2009,09,14,08,58,14.90
2009,09,14,08,59,14.90
2009,09,14,09,00,14.90
2009,09,14,09,01,14.90
2009,09,14,09,02,14.90
2009,09,14,09,03,14.90
2009,09,14,09,04,14.90
2009,09,14,09,05,14.90
2009,09,14,09,06,14.90
2009,09,14,09,07,14.90
2009,09,14,09,08,14.90
2009,09,14,09,09,14.80
2009,09,14,09,10,14.80
2009,09,14,09,11,14.80
2009,09,14,09,12,14.80
2009,09,14,09,13,14.80
2009,09,14,09,14,14.80
2009,09,14,09,15,14.80
2009,09,14,09,16,14.70
2009,09,14,09,17,14.70
2009,09,14,09,18,14.80
2009,09,14,09,19,14.80
2009,09,14,09,20,14.80
2009,09,14,09,21,14.80
2009,09,14,09,22,14.70
2009,09,14,09,23,14.70
2009,09,14,09,24,14.70
2009,09,14,09,25,14.70
2009,09,14,09,26,14.70
2009,09,14,09,27,14.70
2009,09,14,09,28,14.60
2009,09,14,09,29,14.60
2009,09,14,09,30,14.50
2009,09,14,09,31,14.50
2009,09,14,09,32,14.50
2009,09,14,09,33,14.50
2009,09,14,09,34,14.50
2009,09,14,09,35,14.50
2009,09,14,09,36,14.50
2009,09,14,09,37,14.50
2009,09,14,09,38,14.50
2009,09,14,09,39,14.40
2009,09,14,09,40,14.30
2009,09,14,09,41,14.30
2009,09,14,09,42,14.30
2009,09,14,09,43,14.20
2009,09,14,09,44,14.10
2009,09,14,09,45,14.10
2009,09,14,09,46,14.00
2009,09,14,09,47,14.00
2009,09,14,09,48,14.10
2009,09,14,09,49,14.00
2009,09,14,09,50,14.00
2009,09,14,09,51,14.00
2009,09,14,09,52,14.00
2009,09,14,09,53,14.00
2009,09,14,09,54,13.90
2009,09,14,09,55,13.90
2009,09,14,09,56,13.90
2009,09,14,09,57,13.80
2009,09,14,09,58,13.90
2009,09,14,09,59,13.80
2009,09,14,10,00,13.80
2009,09,14,10,01,13.90
2009,09,14,10,02,13.90
2009,09,14,10,03,13.90
2009,09,14,10,04,13.90
2009,09,14,10,05,13.90
2009,09,14,10,06,14.00
2009,09,14,10,07,14.00
2009,09,14,10,08,14.00
2009,09,14,10,09,14.00
2009,09,14,10,10,14.00
2009,09,14,10,11,14.00
2009,09,14,10,12,14.10
2009,09,14,10,13,14.10
2009,09,14,10,14,14.20
2009,09,14,10,15,14.20
2009,09,14,10,16,14.20
2009,09,14,10,17,14.20
2009,09,14,10,18,14.20
2009,09,14,10,19,14.20
2009,09,14,10,20,14.20
2009,09,14,10,21,14.20
2009,09,14,10,22,14.20
2009,09,14,10,23,14.20
2009,09,14,10,24,14.30
2009,09,14,10,25,14.30
2009,09,14,10,26,14.40
2009,09,14,10,27,14.40
2009,09,14,10,28,14.40
2009,09,14,10,29,14.50
2009,09,14,10,30,14.50
2009,09,14,10,31,14.60
2009,09,14,10,32,14.60
2009,09,14,10,33,14.60
2009,09,14,10,34,14.70
2009,09,14,10,35,14.70
2009,09,14,10,36,14.70
2009,09,14,10,37,14.80
2009,09,14,10,38,14.80
2009,09,14,10,39,14.80
2009,09,14,10,40,14.80
2009,09,14,10,41,14.80
2009,09,14,10,42,14.80
2009,09,14,10,43,14.80
2009,09,14,10,44,14.90
2009,09,14,10,45,14.90
2009,09,14,10,46,14.90
2009,09,14,10,47,14.90
2009,09,14,10,48,14.90
2009,09,14,10,49,14.80
2009,09,14,10,50,14.70
2009,09,14,10,51,14.70
2009,09,14,10,52,14.70
2009,09,14,10,53,14.60
2009,09,14,10,54,14.60
2009,09,14,10,55,14.60
2009,09,14,10,56,14.60
2009,09,14,10,57,14.60
2009,09,14,10,58,14.50
2009,09,14,10,59,14.50
2009,09,14,11,00,14.50
2009,09,14,11,01,14.50
2009,09,14,11,02,14.40
2009,09,14,11,03,14.30
2009,09,14,11,04,14.30
2009,09,14,11,05,14.30
2009,09,14,11,06,14.30
2009,09,14,11,07,14.30
2009,09,14,11,08,14.20
2009,09,14,11,09,14.20
2009,09,14,11,10,14.20
2009,09,14,11,11,14.20
2009,09,14,11,12,14.30
2009,09,14,11,13,14.30
2009,09,14,11,14,14.30
2009,09,14,11,15,14.30
2009,09,14,11,16,14.20
2009,09,14,11,17,14.20
2009,09,14,11,18,14.20
2009,09,14,11,19,14.20
2009,09,14,11,20,14.20
2009,09,14,11,21,14.20
2009,09,14,11,22,14.20
2009,09,14,11,23,14.20
2009,09,14,11,24,14.20
2009,09,14,11,25,14.20
2009,09,14,11,26,14.10
2009,09,14,11,27,14.10
2009,09,14,11,28,14.10
2009,09,14,11,29,14.10
2009,09,14,11,30,14.10
2009,09,14,11,31,14.10
2009,09,14,11,32,14.10
2009,09,14,11,33,14.10
2009,09,14,11,34,14.10
2009,09,14,11,35,14.10
2009,09,14,11,36,14.20
2009,09,14,11,37,14.20
2009,09,14,11,38,14.20
2009,09,14,11,39,14.20
2009,09,14,11,40,14.20
2009,09,14,11,41,14.20
2009,09,14,11,42,14.30
2009,09,14,11,43,14.20
2009,09,14,11,44,14.20
2009,09,14,11,45,14.20
2009,09,14,11,46,14.20
2009,09,14,11,47,14.30
2009,09,14,11,48,14.40
2009,09,14,11,49,14.40
2009,09,14,11,50,14.50
2009,09,14,11,51,14.60
2009,09,14,11,52,14.60
2009,09,14,11,53,14.70
2009,09,14,11,54,14.70
2009,09,14,11,55,14.70
2009,09,14,11,56,14.70
2009,09,14,11,57,14.70
2009,09,14,11,58,14.80
2009,09,14,11,59,14.80
2009,09,14,12,00,14.70
2009,09,14,12,01,14.70
2009,09,14,12,02,14.70
2009,09,14,12,03,14.80
2009,09,14,12,04,14.80
2009,09,14,12,05,14.80
2009,09,14,12,06,14.90
2009,09,14,12,07,14.90
2009,09,14,12,08,15.00
2009,09,14,12,09,15.00
2009,09,14,12,10,15.10
2009,09,14,12,11,15.20
2009,09,14,12,12,15.20
2009,09,14,12,13,15.30
2009,09,14,12,14,15.30
2009,09,14,12,15,15.40
2009,09,14,12,16,15.60
2009,09,14,12,17,15.80
2009,09,14,12,18,15.90
2009,09,14,12,19,15.90
2009,09,14,12,20,15.90
2009,09,14,12,21,15.90
2009,09,14,12,22,15.90
2009,09,14,12,23,15.90
2009,09,14,12,24,16.10
2009,09,14,12,25,15.90
2009,09,14,12,26,15.90
2009,09,14,12,27,15.90
2009,09,14,12,28,15.90
2009,09,14,12,29,15.90
2009,09,14,12,30,16.00
2009,09,14,12,31,16.10
2009,09,14,12,32,16.10
2009,09,14,12,33,16.10
2009,09,14,12,34,16.10
2009,09,14,12,35,16.00
2009,09,14,12,36,15.90
2009,09,14,12,37,15.80
2009,09,14,12,38,15.80
2009,09,14,12,39,15.90
2009,09,14,12,40,16.10
2009,09,14,12,41,16.10
2009,09,14,12,42,16.10
2009,09,14,12,43,16.10
2009,09,14,12,44,16.10
2009,09,14,12,45,16.20
2009,09,14,12,46,16.20
2009,09,14,12,47,16.30
2009,09,14,12,48,16.30
2009,09,14,12,49,16.20
2009,09,14,12,50,16.20
2009,09,14,12,51,16.20
2009,09,14,12,52,16.20
2009,09,14,12,53,16.20
2009,09,14,12,54,16.10
2009,09,14,12,55,16.00
2009,09,14,12,56,16.10
2009,09,14,12,57,16.10
2009,09,14,12,58,16.10
2009,09,14,12,59,16.20
2009,09,14,13,00,16.20
2009,09,14,13,01,16.30
2009,09,14,13,02,16.30
2009,09,14,13,03,16.40
2009,09,14,13,04,16.40
2009,09,14,13,05,16.40
2009,09,14,13,06,16.40
2009,09,14,13,07,16.40
2009,09,14,13,08,16.40
2009,09,14,13,09,16.40
2009,09,14,13,10,16.50
2009,09,14,13,11,16.50
2009,09,14,13,12,16.40
2009,09,14,13,13,16.40
2009,09,14,13,14,16.40
2009,09,14,13,15,16.30
2009,09,14,13,16,16.20
2009,09,14,13,17,16.10
2009,09,14,13,18,15.90
2009,09,14,13,19,15.80
2009,09,14,13,20,15.80
2009,09,14,13,21,15.80
2009,09,14,13,22,15.80
2009,09,14,13,23,15.80
2009,09,14,13,24,15.80
2009,09,14,13,25,15.90
2009,09,14,13,26,15.90
2009,09,14,13,27,15.90
2009,09,14,13,28,15.90
2009,09,14,13,29,15.80
2009,09,14,13,30,15.80
2009,09,14,13,31,15.90
2009,09,14,13,32,15.90
2009,09,14,13,33,15.90
2009,09,14,13,34,16.00
2009,09,14,13,35,15.90
2009,09,14,13,36,15.90
2009,09,14,13,37,15.90
2009,09,14,13,38,16.00
2009,09,14,13,39,16.10
2009,09,14,13,40,16.10
2009,09,14,13,41,16.10
2009,09,14,13,42,16.00
2009,09,14,13,43,15.80
2009,09,14,13,44,15.80
2009,09,14,13,45,15.80
2009,09,14,13,46,15.60
2009,09,14,13,47,15.50
2009,09,14,13,48,15.50
2009,09,14,13,49,15.40
2009,09,14,13,50,15.30
2009,09,14,13,51,15.30
2009,09,14,13,52,15.20
2009,09,14,13,53,15.10
2009,09,14,13,54,15.10
2009,09,14,13,55,15.20
2009,09,14,13,56,15.20
2009,09,14,13,57,15.20
2009,09,14,13,58,15.30
2009,09,14,13,59,15.30
2009,09,14,14,00,15.30
2009,09,14,14,01,15.30
2009,09,14,14,02,15.30
2009,09,14,14,03,15.30
2009,09,14,14,04,15.30
2009,09,14,14,05,15.30
2009,09,14,14,06,15.40
2009,09,14,14,07,15.40
2009,09,14,14,08,15.30
2009,09,14,14,09,15.30
2009,09,14,14,10,15.30
2009,09,14,14,11,15.40
2009,09,14,14,12,15.50
2009,09,14,14,13,15.60
2009,09,14,14,14,15.80
2009,09,14,14,15,15.80
2009,09,14,14,16,15.80
2009,09,14,14,17,15.90
2009,09,14,14,18,15.90
2009,09,14,14,19,15.90
2009,09,14,14,20,16.10
2009,09,14,14,21,16.10
2009,09,14,14,22,16.20
2009,09,14,14,23,16.40
2009,09,14,14,24,16.40
2009,09,14,14,25,16.40
2009,09,14,14,26,16.50
2009,09,14,14,27,16.60
2009,09,14,14,28,16.40
2009,09,14,14,29,16.40
2009,09,14,14,30,16.30
2009,09,14,14,31,16.20
2009,09,14,14,32,16.20
2009,09,14,14,33,16.20
2009,09,14,14,34,16.10
2009,09,14,14,35,16.10
2009,09,14,14,36,16.10
2009,09,14,14,37,16.10
2009,09,14,14,38,16.20
2009,09,14,14,39,16.20
2009,09,14,14,40,16.10
2009,09,14,14,41,16.10
2009,09,14,14,42,16.10
2009,09,14,14,43,16.00
2009,09,14,14,44,15.80
2009,09,14,14,45,15.80
2009,09,14,14,46,15.80
2009,09,14,14,47,15.70
2009,09,14,14,48,15.70
2009,09,14,14,49,15.70
2009,09,14,14,50,15.60
2009,09,14,14,51,15.60
2009,09,14,14,52,15.70
2009,09,14,14,53,15.70
2009,09,14,14,54,15.70
2009,09,14,14,55,15.70
2009,09,14,14,56,15.60
2009,09,14,14,57,15.60
2009,09,14,14,58,15.70
2009,09,14,14,59,15.70
2009,09,14,15,00,15.80
2009,09,14,15,01,15.80
2009,09,14,15,02,15.80
2009,09,14,15,03,15.80
2009,09,14,15,04,15.80
2009,09,14,15,05,15.80
2009,09,14,15,06,15.80
2009,09,14,15,07,15.80
2009,09,14,15,08,15.70
2009,09,14,15,09,15.70
2009,09,14,15,10,15.70
2009,09,14,15,11,15.70
2009,09,14,15,12,15.70
2009,09,14,15,13,15.70
2009,09,14,15,14,15.70
2009,09,14,15,15,15.70
2009,09,14,15,16,15.70
2009,09,14,15,17,15.80
2009,09,14,15,18,15.80
2009,09,14,15,19,15.80
2009,09,14,15,20,15.80
2009,09,14,15,21,15.80
2009,09,14,15,22,15.90
2009,09,14,15,23,16.10
2009,09,14,15,24,16.10
2009,09,14,15,25,16.10
2009,09,14,15,26,16.10
2009,09,14,15,27,16.10
2009,09,14,15,28,16.20
2009,09,14,15,29,16.30
2009,09,14,15,30,16.40
2009,09,14,15,31,16.40
2009,09,14,15,32,16.40
2009,09,14,15,33,16.60
2009,09,14,15,34,16.60
2009,09,14,15,35,16.60
2009,09,14,15,36,16.70
2009,09,14,15,37,16.70
2009,09,14,15,38,16.70
2009,09,14,15,39,16.70
2009,09,14,15,40,16.80
2009,09,14,15,41,16.90
2009,09,14,15,42,16.90
2009,09,14,15,43,16.90
2009,09,14,15,44,16.90
2009,09,14,15,45,16.90
2009,09,14,15,46,16.90
2009,09,14,15,47,17.00
2009,09,14,15,48,17.00
2009,09,14,15,49,17.10
2009,09,14,15,50,17.10
2009,09,14,15,51,17.10
2009,09,14,15,52,17.00
2009,09,14,15,53,16.90
2009,09,14,15,54,16.90
2009,09,14,15,55,16.80
2009,09,14,15,56,16.70
2009,09,14,15,57,16.70
2009,09,14,15,58,16.70
2009,09,14,15,59,16.80
2009,09,14,16,00,16.80
2009,09,14,16,01,16.70
2009,09,14,16,02,16.60
2009,09,14,16,03,16.60
2009,09,14,16,04,16.60
2009,09,14,16,05,16.50
2009,09,14,16,06,16.40
2009,09,14,16,07,16.50
2009,09,14,16,08,16.60
2009,09,14,16,09,16.70
2009,09,14,16,10,16.70
2009,09,14,16,11,16.70
2009,09,14,16,12,16.80
2009,09,14,16,13,16.80
2009,09,14,16,14,16.80
2009,09,14,16,15,16.80
2009,09,14,16,16,16.70
2009,09,14,16,17,16.70
2009,09,14,16,18,16.80
2009,09,14,16,19,16.90
2009,09,14,16,20,16.90
2009,09,14,16,21,17.00
2009,09,14,16,22,17.10
2009,09,14,16,23,17.00
2009,09,14,16,24,16.90
2009,09,14,16,25,16.80
2009,09,14,16,26,16.80
2009,09,14,16,27,16.90
2009,09,14,16,28,16.90
2009,09,14,16,29,16.90
2009,09,14,16,30,16.90
2009,09,14,16,31,16.90
2009,09,14,16,32,16.90
2009,09,14,16,33,16.80
2009,09,14,16,34,16.80
2009,09,14,16,35,16.80
2009,09,14,16,36,16.90
2009,09,14,16,37,16.90
2009,09,14,16,38,17.00
2009,09,14,16,39,17.00
2009,09,14,16,40,17.10
2009,09,14,16,41,17.10
2009,09,14,16,42,17.10
2009,09,14,16,43,17.10
2009,09,14,16,44,17.00
2009,09,14,16,45,17.00
2009,09,14,16,46,17.00
2009,09,14,16,47,16.90
2009,09,14,16,48,16.90
2009,09,14,16,49,16.90
2009,09,14,16,50,16.90
2009,09,14,16,51,16.90
2009,09,14,16,52,17.00
2009,09,14,16,53,17.00
2009,09,14,16,54,17.10
2009,09,14,16,55,17.20
2009,09,14,16,56,17.30
2009,09,14,16,57,17.30
2009,09,14,16,58,17.30
2009,09,14,16,59,17.20
2009,09,14,17,00,17.10
2009,09,14,17,01,17.00
2009,09,14,17,02,17.00
2009,09,14,17,03,17.00
2009,09,14,17,04,16.90
2009,09,14,17,05,16.80
2009,09,14,17,06,16.70
2009,09,14,17,07,16.70
2009,09,14,17,08,16.70
2009,09,14,17,09,16.70
2009,09,14,17,10,16.70
2009,09,14,17,11,16.70
2009,09,14,17,12,16.70
2009,09,14,17,13,16.70
2009,09,14,17,14,16.70
2009,09,14,17,15,16.70
2009,09,14,17,16,16.70
2009,09,14,17,17,16.70
2009,09,14,17,18,16.60
2009,09,14,17,19,16.60